STARLINK-35813

Last updated on Sun Dec 07 2025 00:02:05 GMT+0000 (Coordinated Universal Time)

1 66361U 25254P 25340.58335648 -.00128754 00000+0 -23411-2 0 9997 2 66361 53.1602 305.9913 0001465 87.7053 345.6025 15.49357526 5936
UTC large
Height (km)
Speed (km/s)
/
Latitude / Longitude
Inclination (degrees)
Orbital Period (minutes)
Azimuth
Elevation
Range (km)
Doppler Factor

Next 0 passes for location: London (51.5072 / 0.1276)

Sorry there are no passes over London.